Weather in Pugachev

Russia / Saratov Oblast     52°00′53″N   48°47′44″E
temp.,
°C
wind,
m/s
gust,
m/s
humid.,
%
clouds,
%
prec.,
mm/h
press.,
hPa
HPBL,
m
27 october, wed
wed2701:00+1sw512639 0.0 1028240
04:00+1sw51266100 0.0 1028265
07:00+1sw51268100 0.0 1026248
10:00+4sw71254100 0.0 1026403
13:00+8wsw81138100 0.0 1026716
16:00+8sw71238100 0.0 1024774
19:00+5sw7144469 0.0 1023409
22:00+4sw7154670 0.0 1023416
28 october, thu
thu2801:00+3sw715495 0.0 1022392
04:00+2sw715525 0.0 1020395
07:00+2sw6135399 0.0 1020332
10:00+4wsw61148100 0.0 1020391
13:00+7wsw6849100 0.0 1020553
16:00+8sw5952100 0.0 1018658
19:00+7sw51151100 0.0 1018371
22:00+6sw5124686 0.0 1018353
29 october, fri
fri2901:00+5sw51053100 0.0 1017269
04:00+5wsw4874100 0.4 1018340
07:00+5w3691100 0.2 1020250
10:00+6nnw3891100 0.4 1023390
13:00+7nne6779100 0.0 1025594
16:00+8nne467092 0.0 1027806
19:00+5nne368015 0.0 1030153
22:00+3nne228412 0.0 103223
30 october, sat
sat3001:00+2n0085100 0.0 103210
04:00+2wsw22875 0.0 103314
07:00+1wsw34885 0.0 103348
10:00+5wsw47735 0.0 1034261
13:00+9wsw685519 0.0 1033599
16:00+10wsw595329 0.0 1032612
19:00+6wsw4106751 0.0 1033192
22:00+5wsw497175 0.0 1033169
31 october, sun
sun3101:00+5wsw49756 0.0 1033150
04:00+4wsw48795 0.0 1033123
07:00+4wsw35835 0.0 103487
10:00+7w47683 0.0 1034207
13:00+11w45510 0.0 1033476
16:00+11wsw46510 0.0 1032379
19:00+7wsw34620 0.0 103352
22:00+6wsw33650 0.0 103341